Probability
0 0 0 0 0 0 0 0 1 1 1 1 5 10 10 11 14 12 7 6 7 7 7 8 9 11 17 27 38 50 57 58 60 60 56 55 56 53 47 42 39 34 28 25
0 0 0 0 0 0 0 0 0 0 0 2 7 11 11 11 11 8 6 6 5 5 4 4 4 7 11 19 28 38 44 44 46 49 45 43 43 39 36 36 34 28 22 20
0 0 0 0 0 0 0 0 0 0 0 2 6 10 10 9 7 4 3 3 2 1 1 1 1 3 6 11 17 24 30 30 32 34 32 29 27 23 24 28 28 23 15 11
0 0 0 0 0 0 0 0 0 0 0 1 4 7 9 7 4 1 0 0 0 0 0 0 1 1 3 6 11 19 25 27 29 30 29 25 18 14 16 19 21 18 12 7
0 0 0 0 0 0 0 0 0 0 0 0 1 3 6 6 4 2 0 0 0 0 0 0 1 2 3 4 8 18 28 31 32 33 29 23 17 12 10 9 10 10 7 6
0 0 0 0 0 0 0 0 0 0 0 0 0 2 4 6 6 3 1 0 0 0 0 1 1 3 5 6 7 16 27 30 29 27 24 19 16 11 6 3 3 2 2 3
0 0 0 0 0 0 0 0 0 1 1 1 0 2 5 7 6 4 1 0 0 0 0 0 1 3 5 4 4 9 15 17 15 14 13 12 10 6 2 1 0 0 0 1
0 0 0 0 0 0 0 0 0 1 1 1 1 4 7 6 4 2 1 0 0 0 0 0 1 2 2 2 1 2 3 4 5 5 5 4 3 1 0 0 0 0 0 0
0 0 0 0 0 0 0 0 0 0 0 0 2 6 6 3 1 0 0 0 0 0 0 0 0 1 1 0 0 0 0 1 2 2 1 1 1 0 0 0 0 0 1 1
0 0 0 0 0 0 0 0 0 0 0 0 1 3 3 1 0 0 0 0 0 0 0 0 0 0 0 0 0 0 0 0 1 1 0 1 1 0 0 0 0 0 0 0
0 0 0 0 0 0 0 0 0 0 0 0 0 0 1 0 0 0 0 0 0 0 0 0 0 0 0 0 0 0 0 0 0 0 0 0 0 0 0 0 0 0 0 1
0 0 0 0 0 0 0 0 0 0 0 0 0 0 0 0 0 0 0 0 0 0 0 0 0 0 0 0 0 0 0 0 0 0 0 0 0 0 0 0 0 0 0 1
0 0 0 0 0 0 0 0 0 0 0 0 0 0 0 0 0 0 0 0 0 0 0 0 0 0 0 0 0 0 0 0 0 0 0 0 0 0 0 0 0 0 0 1
0 0 0 0 0 0 0 0 0 0 0 0 0 0 0 0 0 0 0 0 0 0 0 0 0 0 0 0 0 0 0 0 0 0 0 0 0 0 0 0 0 0 0 0
0 0 0 0 0 0 0 0 0 0 0 0 0 0 0 0 0 0 0 0 0 0 0 0 0 0 0 0 0 0 0 0 0 0 0 0 0 0 0 0 0 0 0 0
0 0 0 0 0 0 0 0 0 0 0 0 0 0 0 0 0 0 0 0 0 0 0 0 0 0 0 0 0 0 0 0 0 0 0 0 0 0 0 0 0 0 0 0
0 0 0 0 0 0 0 0 0 0 0 0 0 0 0 0 0 0 0 0 0 0 0 0 0 0 0 0 0 0 0 0 0 0 0 0 0 0 0 0 0 0 0 0
0 0 0 0 0 0 0 0 0 0 0 0 0 0 0 0 0 0 0 0 0 0 0 0 0 0 0 0 0 0 0 0 0 0 0 0 0 0 0 0 0 0 0 0
0 0 0 0 0 0 0 0 0 0 0 0 0 0 0 0 0 0 0 0 0 0 0 0 0 0 0 0 0 0 0 0 0 0 0 0 0 0 0 0 0 0 0 0
0 0 0 0 0 0 0 0 0 0 0 0 0 0 0 0 0 0 0 0 0 0 0 0 0 0 0 0 0 0 0 0 0 0 0 0 0 0 0 0 0 0 0 0
0 0 0 0 0 0 0 0 0 0 0 0 0 0 0 0 0 0 0 0 0 0 0 0 0 0 0 0 0 0 0 0 0 0 0 0 0 0 0 0 0 0 0 0
0 0 0 0 0 0 0 0 0 0 0 0 0 0 0 0 0 0 0 0 0 0 0 0 0 0 0 0 0 0 0 0 0 0 0 0 0 0 0 0 0 0 0 0
0 0 0 0 0 0 0 0 0 0 0 0 0 0 0 0 0 0 0 0 0 0 0 0 0 0 0 0 0 0 0 0 0 0 0 0 0 0 0 0 0 0 0 0
0 0 0 0 0 0 0 0 0 0 0 0 0 0 0 0 0 0 0 0 0 0 0 0 0 0 0 0 0 0 0 0 0 0 0 0 0 0 0 0 0 0 0 0
0 0 0 0 0 0 0 0 0 0 0 0 0 0 0 0 0 0 0 0 0 0 0 0 0 0 0 0 0 0 0 0 0 0 0 0 0 0 0 0 0 0 0 0
0 0 0 0 0 0 0 0 0 0 0 0 0 0 0 0 0 0 0 0 0 0 0 0 0 0 0 0 0 0 0 0 0 0 0 0 0 0 0 0 0 0 0 0
Wind_Speed
8 6 8 12 10 8 8 6 5 6 7 4 6 10 10 9 9 10 9 9 9 8 8 6 6 5 5 5 4 4 4 4 3 3 4 3 3 3 2 1 1 1 2 3
3 6 12 16 13 10 6 1 2 3 4 4 5 8 9 9 8 9 9 9 9 9 8 6 5 5 4 4 3 3 3 4 4 3 3 2 3 3 3 1 0 1 1 3
2 9 15 16 12 7 6 6 6 5 6 5 3 4 6 6 10 9 9 9 9 8 7 6 5 4 4 3 2 3 3 2 4 5 4 4 4 4 3 3 1 0 1 2
2 7 10 9 7 5 4 7 9 7 6 4 2 1 3 2 5 8 9 8 8 7 6 5 4 3 2 2 2 3 2 1 2 4 5 7 6 6 6 4 3 4 3 4
8 8 8 6 6 4 3 5 5 11 11 9 6 3 2 2 5 6 7 7 6 5 4 3 1 1 1 2 1 1 2 1 2 3 5 6 7 6 6 7 7 7 6 6
14 10 6 5 7 6 6 4 7 11 9 7 5 2 4 7 8 6 7 6 4 2 2 2 1 1 1 2 2 3 4 3 3 4 5 6 7 7 8 9 9 8 6 5
12 9 7 4 6 6 8 7 3 3 1 7 9 4 5 8 7 6 5 4 2 1 0 1 2 2 2 3 3 3 4 4 4 4 5 6 7 7 9 9 8 7 6 5
3 4 6 6 7 7 7 7 6 8 3 4 5 4 7 9 7 5 4 2 1 1 3 4 4 4 4 5 4 4 4 4 4 5 5 5 7 7 6 7 7 8 7 7
4 3 1 3 4 6 8 9 11 10 9 1 7 7 7 7 5 3 3 4 5 6 6 6 7 8 7 7 6 6 5 5 5 5 6 7 7 6 7 7 8 7 6 8
7 7 5 3 2 3 7 9 7 8 9 8 6 8 6 5 5 6 6 6 7 7 8 9 9 9 8 7 6 6 6 6 6 7 6 8 6 7 7 8 8 7 8 8
8 6 7 6 6 7 8 9 8 8 8 8 6 8 8 5 4 6 7 8 8 9 10 10 9 9 8 8 8 7 7 6 6 6 6 6 6 7 7 7 8 8 8 8
7 6 5 8 13 12 4 6 7 6 7 7 6 7 4 3 6 9 9 9 9 9 9 10 10 9 9 9 9 9 8 8 7 7 6 6 6 7 8 9 9 8 8 8
9 6 5 3 5 11 6 3 6 8 7 7 7 5 1 5 10 10 10 10 9 9 10 10 9 9 9 9 9 10 10 10 10 9 8 8 8 8 9 9 9 9 9 9
5 7 8 7 3 4 5 4 3 5 6 8 9 10 9 11 10 10 9 8 9 9 9 9 9 8 8 8 8 9 10 10 11 10 10 9 9 9 9 10 9 9 9 9
4 8 10 10 9 7 7 7 6 5 6 7 9 10 9 10 10 9 9 9 10 9 10 10 10 9 9 9 8 9 10 9 10 10 11 10 10 9 10 10 10 10 10 12
1 6 12 12 11 9 10 8 4 4 6 7 9 9 10 10 10 9 9 9 9 9 11 11 11 11 10 10 10 10 10 9 9 10 11 11 11 11 11 10 10 10 10 10
5 6 10 12 10 12 8 4 2 4 7 8 9 8 10 10 10 9 8 7 8 10 11 11 11 10 9 9 8 9 10 10 10 10 11 11 12 12 11 13 12 11 10 10
5 7 7 11 12 11 4 0 2 3 5 7 7 7 9 9 9 8 8 7 8 10 10 11 11 11 11 10 10 9 11 11 11 11 12 12 12 13 12 12 12 11 9 9
6 5 7 10 12 8 1 2 0 4 7 5 6 8 9 10 10 6 8 7 7 9 9 9 11 11 11 11 10 10 11 12 12 12 12 13 13 13 13 13 12 11 9 10
4 5 7 9 12 14 8 5 3 3 1 8 7 8 9 9 8 5 9 8 9 9 9 9 10 11 10 11 11 11 12 12 12 12 13 13 13 13 14 13 11 10 9 10
7 8 9 10 12 7 7 6 3 6 4 4 7 7 7 6 6 7 8 8 8 8 9 9 10 9 9 10 9 11 12 12 13 13 13 13 13 12 13 10 9 9 9 9
7 7 8 8 8 3 4 3 5 4 2 4 5 5 5 5 6 7 7 8 8 9 10 10 9 9 9 9 10 11 12 12 12 13 14 14 13 13 11 10 10 9 9 9
5 5 4 4 5 1 5 5 2 1 2 3 4 5 4 6 6 7 7 7 8 9 9 9 10 10 9 9 9 11 11 12 13 13 14 14 14 12 10 9 9 8 7 6
6 4 4 6 8 8 8 7 3 3 2 2 2 3 3 5 6 6 6 6 7 8 9 9 10 11 11 10 10 10 11 11 12 14 13 13 13 12 9 7 6 6 5 6
10 10 10 11 8 8 8 6 4 2 3 3 2 2 3 4 5 5 5 6 6 7 8 8 9 10 11 11 10 10 10 11 13 14 13 12 11 10 9 7 5 5 4 3
10 9 8 8 5 6 7 6 4 4 5 5 4 4 3 3 4 5 5 5 6 7 8 8 10 11 11 11 11 10 10 11 12 12 12 10 10 8 8 7 6 4 4 4
Wind_Direction
251 263 303 308 293 268 231 203 171 199 224 218 165 149 142 135 130 124 120 116 110 105 104 101 96 87 83 77 73 62 55 43 12 23 355 346 342 328 306 273 92 358 318 318
298 313 285 271 278 281 302 336 179 216 259 252 185 151 138 133 122 120 123 124 122 122 119 121 127 120 107 102 106 103 67 39 16 18 323 295 309 295 275 291 138 232 315 318
175 231 245 265 283 307 335 331 299 265 248 248 247 121 96 110 124 136 134 132 129 134 133 139 136 134 133 126 112 78 64 31 16 347 320 332 320 301 311 333 304 252 292 283
292 252 256 280 300 311 320 301 293 284 277 274 221 168 144 189 178 156 146 142 134 129 132 134 139 134 142 164 171 143 134 47 356 333 333 332 313 309 315 316 321 325 302 271
314 298 299 305 302 295 254 245 332 9 3 350 14 37 180 170 240 171 147 130 121 121 116 107 82 97 311 298 305 170 144 101 358 341 320 314 311 318 319 321 312 302 285 260
301 293 296 314 315 324 319 297 38 34 20 336 283 244 206 186 198 168 142 130 129 128 137 146 232 235 278 304 332 5 48 33 9 341 325 316 313 312 307 300 292 287 278 267
305 312 312 326 338 353 321 312 347 14 95 254 236 224 178 161 149 133 123 115 118 126 263 292 303 326 332 330 356 7 15 4 351 333 319 316 312 306 292 286 293 305 308 308
286 289 303 352 353 330 314 320 313 309 278 215 186 188 118 113 113 110 100 82 13 5 20 354 347 359 352 347 356 356 354 337 322 311 306 307 298 291 291 307 320 309 298 294
305 299 263 31 341 340 335 341 335 321 320 51 137 121 113 133 128 88 35 11 9 9 355 347 356 352 346 354 357 350 339 329 323 316 306 287 280 299 313 311 297 289 290 296
324 326 341 355 314 16 339 340 352 337 347 346 86 105 114 103 40 14 8 7 3 352 353 359 355 345 351 348 346 344 340 333 324 312 304 308 322 313 298 295 294 293 289 285
352 328 329 330 5 1 352 5 5 345 355 340 3 81 91 61 12 12 9 6 359 357 355 350 346 349 347 342 340 341 336 328 320 313 308 306 301 299 298 293 289 289 291 292
359 327 337 13 5 334 346 11 355 345 342 324 336 99 77 42 33 34 12 4 5 359 352 348 346 347 342 337 336 334 330 321 317 316 311 305 301 299 297 297 295 294 292 289
347 321 314 17 354 294 293 28 356 340 325 330 341 87 169 35 37 26 11 2 353 356 353 347 347 344 338 339 335 328 323 321 319 314 309 308 305 303 298 296 293 291 288 285
289 299 314 330 329 306 320 343 356 333 338 338 350 352 0 31 16 6 356 350 351 352 352 347 344 339 339 332 330 326 322 320 316 316 313 307 303 301 299 296 294 291 289 286
291 311 319 316 319 319 319 319 329 328 329 318 333 333 17 23 5 359 353 352 344 344 346 344 338 334 331 329 326 321 318 316 316 313 307 306 304 300 296 293 291 288 286 285
250 309 309 308 315 296 293 292 284 300 305 312 320 334 28 12 0 351 344 336 336 345 342 337 333 331 328 325 322 322 318 319 315 309 308 306 301 297 295 293 289 287 285 285
295 293 301 303 303 296 312 323 300 325 330 328 324 352 14 354 346 340 337 349 354 342 336 335 333 327 323 322 326 323 321 318 314 310 307 304 302 300 298 298 297 294 292 290
264 296 297 294 302 301 315 312 345 344 331 321 330 12 0 345 346 8 49 27 350 341 340 337 328 324 324 329 327 325 321 319 316 313 310 309 305 304 302 299 295 292 290 288
202 250 283 293 294 295 268 218 189 345 322 353 17 3 348 349 328 87 52 14 357 351 341 330 324 323 326 326 327 325 319 318 316 315 314 312 309 307 304 301 298 295 292 289
197 205 254 277 292 299 317 113 87 322 34 46 18 1 347 337 323 357 13 3 1 347 334 328 326 325 326 328 328 320 317 318 318 318 315 312 308 305 302 299 298 297 293 289
224 231 247 271 281 302 83 113 271 309 58 18 2 354 340 351 325 328 342 356 352 338 332 333 331 328 328 326 323 318 319 322 323 318 313 309 306 302 297 297 298 298 296 293
279 273 271 275 286 337 111 299 346 28 37 342 343 341 342 329 318 328 341 348 343 336 336 337 332 329 327 326 326 322 323 325 322 317 314 311 307 304 306 305 301 300 299 298
278 292 314 324 322 263 249 293 334 348 306 318 329 338 337 320 321 330 339 344 338 336 336 334 331 326 327 330 330 325 326 326 322 318 315 312 310 305 304 304 304 305 304 306
321 21 305 290 287 293 295 297 272 243 238 284 314 317 310 309 318 327 337 337 335 336 332 333 329 328 328 329 329 327 327 326 321 318 316 314 312 310 311 309 305 307 310 315
307 292 278 273 277 280 282 288 272 247 209 224 247 265 284 299 309 323 330 334 335 328 329 330 329 327 326 329 327 329 331 328 323 319 317 316 313 312 313 310 308 306 308 307
289 298 306 307 319 299 293 284 245 224 225 226 235 255 267 284 302 317 323 330 326 326 329 329 329 327 326 326 327 330 333 330 323 319 319 317 315 317 317 317 316 284 266 262